| time (UTC) | temp F | wind direction | speed knots | gust knots | rain 1hr in | rain 24hr in | rain mn in | humidity % | barometer mb |
| 20260509030056 | 62 | 330 | 3.5 | 6.1 | 0.00 | 0.00 | 0.00 | 35 | 1003.9 |
| 20260509024556 | 62 | 338 | 5.2 | 7.8 | 0.00 | 0.00 | 0.00 | 35 | 1003.8 |
| 20260509023055 | 63 | 335 | 4.3 | 7.0 | 0.00 | 0.00 | 0.00 | 35 | 1003.5 |
| 20260509021554 | 64 | 326 | 4.3 | 7.0 | 0.00 | 0.00 | 0.00 | 35 | 1003.3 |
| 20260509020054 | 65 | 340 | 5.2 | 8.7 | 0.00 | 0.00 | 0.00 | 35 | 1003.0 |
| 20260509014554 | 65 | 330 | 4.3 | 7.0 | 0.00 | 0.00 | 0.00 | 35 | 1002.9 |
| 20260509013053 | 67 | 335 | 5.2 | 8.7 | 0.00 | 0.00 | 0.00 | 34 | 1002.7 |
| 20260509011552 | 68 | 328 | 7.8 | 10.4 | 0.00 | 0.00 | 0.00 | 32 | 1002.5 |
| 20260509010051 | 69 | 336 | 7.0 | 11.3 | 0.00 | 0.00 | 0.00 | 32 | 1002.5 |
| 20260509004551 | 70 | 337 | 8.7 | 14.8 | 0.00 | 0.00 | 0.00 | 31 | 1002.4 |
| 20260509003050 | 71 | 326 | 8.7 | 13.9 | 0.00 | 0.00 | 0.00 | 31 | 1002.3 |
| 20260509001549 | 71 | 328 | 10.4 | 13.9 | 0.00 | 0.00 | 0.00 | 30 | 1002.3 |
| 20260509000049 | 71 | 337 | 7.8 | 13.9 | 0.00 | 0.00 | 0.00 | 30 | 1002.2 |
| 20260508234553 | 72 | 290 | 6.1 | 14.8 | 0.00 | 0.00 | 0.00 | 28 | 1002.1 |
| 20260508233049 | 72 | 300 | 7.0 | 9.6 | 0.00 | 0.00 | 0.00 | 27 | 1002.1 |
| 20260508231613 | 72 | 308 | 5.2 | 8.7 | 0.00 | 0.00 | 0.00 | 26 | 1002.2 |
| 20260508230056 | 72 | 283 | 7.0 | 9.6 | 0.00 | 0.00 | 0.00 | 26 | 1002.4 |
| 20260508224542 | 72 | 291 | 7.0 | 12.2 | 0.00 | 0.00 | 0.00 | 26 | 1002.4 |
| 20260508223045 | 72 | 316 | 6.1 | 13.0 | 0.00 | 0.00 | 0.00 | 26 | 1002.6 |
| 20260508221541 | 73 | 316 | 3.5 | 6.1 | 0.00 | 0.00 | 0.00 | 26 | 1002.6 |
| 20260508220043 | 71 | 309 | 2.6 | 8.7 | 0.00 | 0.00 | 0.00 | 26 | 1002.8 |
| 20260508214550 | 72 | 278 | 5.2 | 8.7 | 0.00 | 0.00 | 0.00 | 26 | 1003.0 |
| 20260508213046 | 73 | 312 | 7.0 | 10.4 | 0.00 | 0.00 | 0.00 | 26 | 1003.3 |
| 20260508211540 | 71 | 320 | 7.0 | 12.2 | 0.00 | 0.00 | 0.00 | 26 | 1003.5 |
| 20260508210033 | 71 | 294 | 7.0 | 11.3 | 0.00 | 0.00 | 0.00 | 25 | 1003.6 |
| 20260508204533 | 71 | 319 | 7.0 | 9.6 | 0.00 | 0.00 | 0.00 | 25 | 1003.7 |
| 20260508203029 | 71 | 330 | 7.0 | 16.5 | 0.00 | 0.00 | 0.00 | 25 | 1004.0 |
| 20260508201527 | 71 | 329 | 5.2 | 10.4 | 0.00 | 0.00 | 0.00 | 24 | 1004.2 |
| 20260508200030 | 72 | 287 | 9.6 | 13.9 | 0.00 | 0.00 | 0.00 | 23 | 1004.5 |
| 20260508194525 | 72 | 281 | 3.5 | 10.4 | 0.00 | 0.00 | 0.00 | 23 | 1004.7 |
| 20260508193028 | 72 | 280 | 7.8 | 11.3 | 0.00 | 0.00 | 0.00 | 23 | 1005.0 |
| 20260508191534 | 70 | 290 | 6.1 | 10.4 | 0.00 | 0.00 | 0.00 | 23 | 1005.2 |
| 20260508190027 | 71 | 274 | 5.2 | 8.7 | 0.00 | 0.00 | 0.00 | 24 | 1005.5 |
| 20260508184522 | 71 | 285 | 5.2 | 8.7 | 0.00 | 0.00 | 0.00 | 24 | 1005.6 |
| 20260508183014 | 70 | 307 | 5.2 | 7.8 | 0.00 | 0.00 | 0.00 | 24 | 1005.8 |
| 20260508181511 | 69 | 285 | 7.8 | 12.2 | 0.00 | 0.00 | 0.00 | 25 | 1006.0 |
| 20260508180009 | 70 | 285 | 5.2 | 11.3 | 0.00 | 0.00 | 0.00 | 24 | 1006.2 |
| 20260508174506 | 68 | 328 | 6.1 | 10.4 | 0.00 | 0.00 | 0.00 | 25 | 1006.3 |
| 20260508173004 | 68 | 297 | 7.8 | 11.3 | 0.00 | 0.00 | 0.00 | 26 | 1006.8 |
| 20260508171502 | 68 | 283 | 7.0 | 10.4 | 0.00 | 0.00 | 0.00 | 26 | 1007.2 |
| 20260508164608 | 66 | 244 | 5.2 | 9.6 | 0.00 | 0.00 | 0.00 | 26 | 1007.7 |
| 20260508163056 | 67 | 224 | 3.5 | 7.8 | 0.00 | 0.00 | 0.00 | 27 | 1007.8 |
| 20260508161558 | 67 | 267 | 5.2 | 11.3 | 0.00 | 0.00 | 0.00 | 26 | 1008.0 |
| 20260508160052 | 65 | 300 | 5.2 | 8.7 | 0.00 | 0.00 | 0.00 | 28 | 1008.1 |
| 20260508154550 | 65 | 271 | 4.3 | 9.6 | 0.00 | 0.00 | 0.00 | 30 | 1008.1 |
| 20260508153047 | 64 | 236 | 7.0 | 13.0 | 0.00 | 0.00 | 0.00 | 30 | 1008.4 |
| 20260508151543 | 63 | 219 | 4.3 | 8.7 | 0.00 | 0.00 | 0.00 | 31 | 1008.7 |
| 20260508150041 | 62 | 240 | 5.2 | 8.7 | 0.00 | 0.00 | 0.00 | 33 | 1008.9 |
| 20260508144538 | 61 | 257 | 5.2 | 7.8 | 0.00 | 0.00 | 0.00 | 34 | 1009.0 |
| 20260508143034 | 59 | 231 | 7.0 | 13.0 | 0.00 | 0.00 | 0.00 | 35 | 1009.2 |
| 20260508141533 | 57 | 220 | 7.8 | 17.4 | 0.00 | 0.00 | 0.00 | 37 | 1009.3 |
| 20260508140028 | 57 | 225 | 10.4 | 15.6 | 0.00 | 0.00 | 0.00 | 38 | 1009.3 |
| 20260508134524 | 55 | 231 | 7.0 | 13.9 | 0.00 | 0.00 | 0.00 | 39 | 1009.6 |
| 20260508133021 | 54 | 208 | 8.7 | 12.2 | 0.00 | 0.00 | 0.00 | 39 | 1009.7 |
| 20260508131520 | 54 | 234 | 7.0 | 13.0 | 0.00 | 0.00 | 0.00 | 38 | 1009.8 |
| 20260508130020 | 52 | 229 | 2.6 | 11.3 | 0.00 | 0.00 | 0.00 | 41 | 1009.9 |
| 20260508124514 | 50 | 222 | 2.6 | 5.2 | 0.00 | 0.00 | 0.00 | 42 | 1009.8 |
| 20260508123013 | 48 | 212 | 1.7 | 6.1 | 0.00 | 0.00 | 0.00 | 49 | 1009.9 |
| 20260508121513 | 46 | 195 | 3.5 | 7.0 | 0.00 | 0.00 | 0.00 | 50 | 1010.0 |
| 20260508120026 | 44 | 179 | 1.7 | 5.2 | 0.00 | 0.00 | 0.00 | 52 | 1009.8 |
| 20260508114511 | 43 | 188 | 2.6 | 6.1 | 0.00 | 0.00 | 0.00 | 52 | 1009.7 |
| 20260508113013 | 42 | 187 | 3.5 | 7.0 | 0.00 | 0.00 | 0.00 | 52 | 1009.7 |
| 20260508111509 | 42 | 192 | 4.3 | 7.0 | 0.00 | 0.00 | 0.00 | 52 | 1009.8 |
| 20260508110006 | 41 | 198 | 3.5 | 5.2 | 0.00 | 0.00 | 0.00 | 53 | 1009.6 |
| 20260508104505 | 41 | 187 | 1.7 | 4.3 | 0.00 | 0.00 | 0.00 | 54 | 1009.8 |
| 20260508103004 | 41 | 190 | 1.7 | 3.5 | 0.00 | 0.00 | 0.00 | 53 | 1009.8 |
| 20260508101502 | 41 | 183 | 0.9 | 2.6 | 0.00 | 0.00 | 0.00 | 52 | 1010.0 |
| 20260508094602 | 42 | 180 | 0.9 | 1.7 | 0.00 | 0.00 | 0.00 | 52 | 1010.0 |
| 20260508093104 | 42 | 184 | 0.9 | 2.6 | 0.00 | 0.00 | 0.00 | 51 | 1010.1 |
| 20260508091608 | 42 | 186 | 0.9 | 2.6 | 0.00 | 0.00 | 0.00 | 51 | 1010.0 |
| 20260508090105 | 42 | 178 | 0.9 | 1.7 | 0.00 | 0.00 | 0.00 | 52 | 1010.1 |
| 20260508084555 | 42 | 179 | 0.9 | 1.7 | 0.00 | 0.00 | 0.00 | 51 | 1010.1 |
| 20260508083104 | 41 | 179 | 0.9 | 2.6 | 0.00 | 0.00 | 0.00 | 51 | 1010.1 |
| 20260508081552 | 42 | 180 | 0.9 | 2.6 | 0.00 | 0.00 | 0.00 | 51 | 1010.3 |
| 20260508080101 | 42 | 179 | 1.7 | 2.6 | 0.00 | 0.00 | 0.00 | 50 | 1010.4 |
| 20260508074546 | 43 | 182 | 0.9 | 2.6 | 0.00 | 0.00 | 0.00 | 48 | 1010.5 |
| 20260508073049 | 44 | 183 | 0.9 | 2.6 | 0.00 | 0.00 | 0.00 | 47 | 1010.6 |
| 20260508071545 | 45 | 180 | 0.9 | 2.6 | 0.00 | 0.00 | 0.00 | 46 | 1010.7 |
| 20260508070043 | 44 | 176 | 0.0 | 1.7 | 0.00 | 0.00 | 0.00 | 48 | 1010.7 |
| 20260508064540 | 44 | 178 | 0.9 | 1.7 | 0.00 | 0.00 | 0.00 | 47 | 1010.6 |
| 20260508063038 | 45 | 176 | 0.9 | 1.7 | 0.00 | 0.00 | 0.00 | 45 | 1010.8 |
| 20260508061539 | 46 | 172 | 0.9 | 1.7 | 0.00 | 0.00 | 0.00 | 44 | 1010.9 |
| 20260508060036 | 45 | 176 | 0.9 | 1.7 | 0.00 | 0.00 | 0.00 | 45 | 1011.0 |
| 20260508054541 | 45 | 175 | 0.9 | 2.6 | 0.00 | 0.00 | 0.00 | 46 | 1011.0 |
| 20260508053032 | 51 | 359 | 0.0 | 0.0 | 0.00 | 0.00 | 0.00 | 37 | 1011.1 |
| 20260508051534 | 50 | 359 | 0.0 | 0.0 | 0.00 | 0.00 | 0.00 | 36 | 1011.2 |
| 20260508050026 | 51 | 359 | 0.0 | 0.0 | 0.00 | 0.00 | 0.00 | 35 | 1011.2 |
| 20260508044526 | 51 | 359 | 0.0 | 0.0 | 0.00 | 0.00 | 0.00 | 36 | 1011.3 |
| 20260508043025 | 51 | 359 | 0.0 | 0.0 | 0.00 | 0.00 | 0.00 | 35 | 1011.3 |
| 20260508041525 | 50 | 359 | 0.0 | 0.0 | 0.00 | 0.00 | 0.00 | 39 | 1011.3 |
| 20260508040024 | 53 | 359 | 0.0 | 0.0 | 0.00 | 0.00 | 0.00 | 34 | 1011.4 |
| 20260508034530 | 53 | 352 | 0.0 | 0.0 | 0.00 | 0.00 | 0.00 | 35 | 1011.3 |
| 20260508033024 | 52 | 352 | 0.0 | 0.0 | 0.00 | 0.00 | 0.00 | 37 | 1011.2 |
| 20260508031526 | 53 | 352 | 0.0 | 0.0 | 0.00 | 0.00 | 0.00 | 33 | 1011.3 |